KF2XN Weather Reports


time (UTC)temp
C
wind
direction
speed
KPH
gust
KPH
rain 1hr
cm
rain 24hr
cm
rain mn
cm
humidity
%
barometer
mb
20260504001502 12 259 12.9 29.0 0.00 0.00 0.00 54 1008.9
20260504000001 12 255 9.7 24.1 0.00 0.00 0.00 55 1008.9
20260503234502 12 305 8.0 20.9 0.00 0.00 0.00 56 1009.1
20260503233059 12 273 4.8 27.4 0.00 0.00 0.00 56 1009.3
20260503231554 12 273 3.2 16.1 0.00 0.00 0.00 60 1009.4
20260503230054 12 214 12.9 25.7 0.00 0.00 0.00 60 1009.5
20260503224553 12 219 4.8 17.7 0.00 0.00 0.00 61 1009.5
20260503223051 11 214 4.8 16.1 0.00 0.00 0.00 62 1009.7
20260503221556 11 231 3.2 16.1 0.00 0.00 0.00 64 1009.7
20260503220047 11 261 8.0 25.7 0.00 0.00 0.00 65 1009.8
20260503214545 11 190 11.3 22.5 0.00 0.00 0.00 65 1009.6
20260503213044 11 244 12.9 30.6 0.00 0.00 0.00 64 1009.3
20260503211528 11 253 17.7 35.4 0.00 0.00 0.00 63 1009.1
20260503210026 11 248 19.3 35.4 0.00 0.00 0.00 62 1009.1
20260503204525 10 217 19.3 29.0 0.00 0.00 0.00 64 1009.3
20260503203021 11 230 9.7 25.7 0.00 0.00 0.00 64 1009.4
20260503201518 11 227 14.5 24.1 0.00 0.00 0.00 63 1009.6
20260503200016 11 245 11.3 25.7 0.00 0.00 0.00 63 1009.8
20260503194514 11 211 14.5 29.0 0.00 0.00 0.00 61 1010.0
20260503193009 12 231 14.5 33.8 0.00 0.00 0.00 59 1010.1
20260503191506 11 249 17.7 32.2 0.00 0.00 0.00 60 1010.4
20260503190005 11 248 16.1 33.8 0.00 0.00 0.00 58 1010.6
20260503184503 11 252 12.9 37.0 0.00 0.00 0.00 58 1011.0
20260503183100 11 248 17.7 33.8 0.00 0.00 0.00 56 1011.2
20260503181554 11 233 24.1 35.4 0.00 0.00 0.00 53 1011.4
20260503180100 11 270 16.1 33.8 0.00 0.00 0.00 48 1011.6
20260503174554 11 228 19.3 37.0 0.00 0.00 0.00 52 1011.7
20260503173047 10 175 12.9 27.4 0.00 0.00 0.00 60 1012.0
20260503171548 10 245 11.3 29.0 0.00 0.00 0.00 63 1012.4
20260503140109 8 261 9.7 19.3 0.00 0.00 0.00 73 1013.6
20260503081547 -1 238 0.0 0.0 0.00 0.00 0.00 91 1014.4
20260503071548 0 238 0.0 1.6 0.00 0.00 0.00 89 1014.4
20260503054515 1 247 0.0 0.0 0.00 0.00 0.00 83 1014.6
20260503053009 2 247 0.0 1.6 0.00 0.00 0.00 81 1014.7
20260503051506 2 200 0.0 1.6 0.00 0.00 0.00 80 1014.8
20260503050012 2 249 0.0 3.2 0.00 0.00 0.00 81 1014.8
20260503044505 2 238 0.0 1.6 0.00 0.00 0.00 82 1014.9
20260503043106 2 252 0.0 1.6 0.00 0.00 0.00 81 1015.0
20260503041556 2 228 1.6 3.2 0.00 0.00 0.00 81 1015.1
20260503040104 2 217 1.6 3.2 0.00 0.00 0.00 83 1015.1
20260503034553 3 214 0.0 3.2 0.00 0.00 0.00 83 1015.1
20260503033053 3 213 1.6 4.8 0.00 0.00 0.00 83 1015.2
20260503031601 3 210 1.6 3.2 0.00 0.00 0.00 83 1015.2
20260503030050 3 202 1.6 3.2 0.00 0.00 0.00 83 1015.2
20260503024547 4 202 0.0 1.6 0.00 0.00 0.00 82 1015.3
20260503023050 4 195 1.6 3.2 0.00 0.00 0.00 81 1015.4
20260503021539 4 200 0.0 3.2 0.00 0.00 0.00 80 1015.5
20260503020039 4 203 1.6 3.2 0.00 0.00 0.00 77 1015.6
20260503014547 5 219 0.0 4.8 0.00 0.00 0.00 74 1015.5
20260503013039 5 217 0.0 3.2 0.00 0.00 0.00 73 1015.6
20260503011528 5 244 0.0 6.4 0.00 0.00 0.00 72 1015.5
20260503010034 5 237 0.0 4.8 0.00 0.00 0.00 75 1015.4
20260503004528 5 282 0.0 6.4 0.00 0.00 0.00 75 1015.5
20260503003024 5 311 1.6 8.0 0.00 0.00 0.00 76 1015.4